Nogales, AZ

6:26 AM MST on October 18, 2017 (GMT -0700)
Nogales International

Weather History for KOLS - September, 2013

Change the Weather History Date:

Monday, September 16, 2013

  Actual Average (KFHU) Record (KFHU)
Temperature  
Mean Temperature 81 °F -  
Max Temperature 93 °F 85 °F 93 °F (1988)
Min Temperature 69 °F 65 °F 52 °F (2006)
Cooling Degree Days 16    
Growing Degree Days 31 (Base 50)    
Moisture  
Dew Point 55 °F    
Average Humidity 42    
Maximum Humidity 63    
Minimum Humidity 21    
Precipitation  
Precipitation 0.00 in - - ()
Sea Level Pressure  
Sea Level Pressure 29.75 in    
Wind  
Wind Speed 5 mph (East)    
Max Wind Speed 18 mph    
Max Gust Speed 28 mph    
Visibility 10 miles    
Events      
Averages and records for this station are not official NWS values.
T = Trace of Precipitation, MM = Missing Value Source: NWS Daily Summary

Daily Weather History Graph

Daily Weather History Graph

Search for Another Location

Airport or City:

Trip Planner

Search our weather history database for the weather conditions in past years. The results will help you decide how hot, cold, wet, or windy it might be!

Date:

Astronomy

Sep. 16, 2013 Rise Set
Actual Time 6:08 AM MST 6:27 PM MST
Civil Twilight 5:43 AM MST 6:51 PM MST
Nautical Twilight 5:15 AM MST 7:20 PM MST
Astronomical Twilight 4:46 AM MST 7:48 PM MST
Moon 4:31 PM MST (9/16) 3:07 AM MST (9/16)
Length of Visible Light 13h 07m
Length of Day
12h 19m
Waxing Gibbous, 91% of the Moon is Illuminated
Sep 16
Waxing Gibbous
Sep 19
Full
Sep 26
Last Quarter
Oct 4
New
Oct 11
First Quarter

Hourly Weather History & Observations

Time (MST) Temp. Heat Index Dew Point Humidity Pressure Visibility Wind Dir Wind Speed Gust Speed Precip Events Conditions
12:54 AM 73.9 °F - 55.9 °F 53% 29.73 in 10.0 mi Calm Calm - N/A   Clear
1:54 AM 75.0 °F - 55.9 °F 51% 29.72 in 10.0 mi NE 5.8 mph - N/A   Clear
2:54 AM 72.0 °F - 57.0 °F 59% 29.73 in 10.0 mi Calm Calm - N/A   Clear
3:54 AM 72.0 °F - 57.0 °F 59% 29.73 in 10.0 mi NNE 3.5 mph - N/A   Clear
4:54 AM 71.1 °F - 57.0 °F 61% 29.75 in 10.0 mi NE 6.9 mph - N/A   Clear
5:54 AM 69.1 °F - 55.9 °F 63% 29.78 in 10.0 mi Calm Calm - N/A   Clear
6:54 AM 71.1 °F - 57.0 °F 61% 29.80 in 10.0 mi NE 5.8 mph - N/A   Clear
7:54 AM 78.1 °F - 59.0 °F 52% 29.79 in 10.0 mi NNE 4.6 mph - N/A   Clear
8:54 AM 81.0 °F 81.1 °F 57.9 °F 45% 29.81 in 10.0 mi SW 3.5 mph - N/A   Clear
9:54 AM 86.0 °F 85.0 °F 57.9 °F 38% 29.80 in 10.0 mi South 4.6 mph - N/A   Clear
10:54 AM 89.1 °F 88.0 °F 57.9 °F 35% 29.79 in 10.0 mi Variable 5.8 mph - N/A   Clear
11:54 AM 90.0 °F 88.6 °F 57.0 °F 33% 29.77 in 10.0 mi East 6.9 mph - N/A   Clear
12:54 PM 91.0 °F 89.2 °F 55.9 °F 30% 29.76 in 10.0 mi ESE 10.4 mph - N/A   Clear
1:54 PM 93.0 °F 91.1 °F 55.0 °F 28% 29.72 in 10.0 mi ESE 9.2 mph - N/A   Clear
2:54 PM 93.0 °F - 50.0 °F 23% 29.70 in 10.0 mi ENE 6.9 mph - N/A   Scattered Clouds
3:54 PM 93.0 °F - 48.0 °F 21% 29.69 in 10.0 mi Variable 4.6 mph - N/A   Scattered Clouds
4:54 PM 89.1 °F - 50.0 °F 26% 29.70 in 10.0 mi ESE 8.1 mph - N/A   Clear
5:54 PM 84.9 °F 83.3 °F 54.0 °F 34% 29.72 in 10.0 mi SE 4.6 mph - N/A   Clear
6:54 PM 82.0 °F 81.6 °F 55.9 °F 41% 29.73 in 10.0 mi ENE 6.9 mph - N/A   Scattered Clouds
7:54 PM 84.0 °F 82.5 °F 53.1 °F 34% 29.73 in 10.0 mi East 5.8 mph - N/A   Mostly Cloudy
8:54 PM 82.9 °F 81.9 °F 54.0 °F 37% 29.74 in 10.0 mi East 6.9 mph - N/A   Overcast
9:54 PM 82.9 °F 82.1 °F 55.9 °F 39% 29.73 in 10.0 mi East 16.1 mph 21.9 mph N/A   Mostly Cloudy
10:54 PM 82.0 °F 81.6 °F 55.9 °F 41% 29.74 in 10.0 mi ESE 18.4 mph 27.6 mph N/A   Clear
11:54 PM 80.1 °F 80.2 °F 55.9 °F 43% 29.75 in 10.0 mi West 4.6 mph - N/A   Clear